TimePDT,TemperatureF,Dew PointF,Humidity,Sea Level PressureIn,VisibilityMPH,Wind Direction,Wind SpeedMPH,Gust SpeedMPH,PrecipitationIn,Events,Conditions,WindDirDegrees,DateUTC
12:53 AM,64.4,62.6,94,30.06,10.0,South,4.6,-,N/A,,Overcast,180,2013-08-30 07:53:00
12:58 AM,63.9,62.8,96,30.07,10.0,South,5.8,-,N/A,,Overcast,180,2013-08-30 07:58:00
1:43 AM,62.6,62.6,100,30.06,10.0,South,4.6,-,N/A,,Mostly Cloudy,180,2013-08-30 08:43:00
1:58 AM,62.4,62.1,99,30.07,10.0,South,4.6,-,N/A,,Overcast,170,2013-08-30 08:58:00
2:58 AM,62.8,62.4,99,30.09,10.0,Calm,Calm,-,N/A,,Overcast,0,2013-08-30 09:58:00
3:58 AM,62.6,62.2,99,30.10,10.0,SSE,3.5,-,N/A,,Overcast,150,2013-08-30 10:58:00
4:58 AM,61.9,61.5,99,30.11,10.0,South,3.5,-,N/A,,Mostly Cloudy,180,2013-08-30 11:58:00
5:58 AM,60.8,60.4,99,30.12,10.0,SSW,2.3,-,N/A,,Overcast,200,2013-08-30 12:58:00
6:58 AM,59.7,59.4,99,30.14,9.0,SE,2.3,-,N/A,,Mostly Cloudy,140,2013-08-30 13:58:00
7:58 AM,61.7,61.5,99,30.15,10.0,SE,2.3,-,N/A,,Mostly Cloudy,140,2013-08-30 14:58:00
8:58 AM,64.0,60.8,89,30.16,10.0,South,4.6,-,N/A,,Overcast,180,2013-08-30 15:58:00
9:58 AM,66.6,61.0,82,30.17,10.0,SSE,8.1,-,N/A,,Mostly Cloudy,160,2013-08-30 16:58:00
10:58 AM,70.0,57.7,65,30.17,10.0,Variable,5.8,-,N/A,,Clear,0,2013-08-30 17:58:00
11:58 AM,70.5,55.6,59,30.17,10.0,WSW,5.8,-,N/A,,Mostly Cloudy,240,2013-08-30 18:58:00
12:58 PM,72.7,56.5,57,30.17,10.0,WNW,6.9,-,N/A,,Mostly Cloudy,290,2013-08-30 19:58:00
1:58 PM,73.9,56.3,54,30.16,10.0,Variable,5.8,-,N/A,,Partly Cloudy,0,2013-08-30 20:58:00
2:58 PM,75.2,55.0,49,30.15,10.0,West,9.2,-,N/A,,Mostly Cloudy,270,2013-08-30 21:58:00
3:58 PM,76.1,54.5,47,30.14,10.0,NW,10.4,-,N/A,,Scattered Clouds,310,2013-08-30 22:58:00
4:58 PM,77.0,54.1,45,30.12,10.0,Variable,5.8,-,N/A,,Partly Cloudy,0,2013-08-30 23:58:00
5:58 PM,76.8,53.8,45,30.11,10.0,NW,8.1,-,N/A,,Partly Cloudy,310,2013-08-31 00:58:00
6:58 PM,75.4,53.6,47,30.10,10.0,NW,6.9,-,N/A,,Scattered Clouds,310,2013-08-31 01:58:00
7:58 PM,72.3,53.2,51,30.10,10.0,NW,4.6,-,N/A,,Clear,310,2013-08-31 02:58:00
8:58 PM,67.6,54.7,63,30.11,10.0,NNE,8.1,-,N/A,,Partly Cloudy,20,2013-08-31 03:58:00
9:58 PM,64.9,53.8,67,30.10,10.0,NNE,11.5,-,N/A,,Clear,20,2013-08-31 04:58:00
10:58 PM,63.5,54.3,72,30.10,10.0,North,9.2,-,N/A,,Clear,10,2013-08-31 05:58:00
11:58 PM,62.4,54.5,75,30.10,10.0,North,4.6,-,N/A,,Clear,10,2013-08-31 06:58:00